LogoCoinalyze
    Ad-Free Version 主页 市场 资金费率
    期货数据
    • 汇总数据 (币种)
    • 单币图表
    • 全局图表
    提醒
    TA
    Bitcoin Ethereum BNB Ripple Tron Dogecoin ZCash Monero UNUS SED LEO Chainlink Cardano Stellar Lumens Bitcoin Cash Litecoin Hedera Cronos Polkadot Ethereum Classic Algorand Quant Cosmos VeChain Dash Bitcoin SV BitTorrent Terra Decred Tezos Iota The Graph THETA Decentraland MultiversX NEO Chiliz Golem Basic Attention Token Horizen Qtum Beam 0x DigiByte RIF Token FTX Token Holo FUNToken Zilliqa Ontology aelf Nano Enjin Coin Ravencoin Verge Mask Network Siacoin Status WINk Waves IoTeX Power Ledger iExec RLC Steem Kyber Network Crystal Lisk Ark Ardor WOO Network IOST WAX Icon Storj Wanchain Loopring Bitcoin Diamond Augur AdEx Bitcoin Gold OmiseGO NEM MonaCoin BitShares Ren Komodo V Systems Nuls Mithril SOLVE EOS Maker Aion Nebulas HedgeTrade Bread Fetch.ai TomoChain Polygon Fantom Waltonchain GXChain Bytom Metaverse ETP MaidSafeCoin QASH
    排序方式:
    更多
    • API
    • K线形态
    • 捐赠
    • 联系我们
    • 网站地图
    • 隐私政策
    • 免责声明
    • Theme:
    简体中文
    • English
    • Français
    • Русский
    • Deutsch
    • Türkçe
    • Nederlands
    • Português (BR)
    • Español
    • 한국어
    • 日本語
     
    登录 / 注册
    Markets/ Pepe/ PEPE 至 USDT/ PEPEUSDT Poloniex
    交易
    WL
    聊天
    统计
    新闻
    ⦷
    AAA
    0.00000340910 29333255.00000000 21:55:48
    0.00000340953 29329555.00000000 21:55:46
    0.00000340919 26674700.00000000 21:55:46
    0.00000340962 25781612.00000000 21:55:44
    0.00000340921 28105630.00000000 21:55:44
    0.00000341028 16384119.00000000 21:55:43
    0.00000340930 25443770.00000000 21:55:41
    0.00000341039 23393629.00000000 21:55:40
    0.00000340950 13270084.00000000 21:55:39
    0.00000340925 29331964.00000000 21:55:39
    0.00000341005 18710873.00000000 21:55:38
    0.00000340933 29331276.00000000 21:55:37
    0.00000340994 27809388.00000000 21:55:35
    0.00000341020 29323793.00000000 21:55:34
    0.00000341086 28559702.00000000 21:55:33
    0.00000341065 29319924.00000000 21:55:31
    0.00000341042 23784541.00000000 21:55:29
    0.00000340899 29334201.00000000 21:55:28
    0.00000340905 9053487.00000000 21:55:28
    0.00000341016 3953603.00000000 21:55:27
    0.00000341051 29321127.00000000 21:55:25
    0.00000341028 15126964.00000000 21:55:23
    0.00000341014 29324309.00000000 21:55:22
    0.00000340980 18890795.00000000 21:55:18
    0.00000341011 25010114.00000000 21:55:18
    0.00000340921 29332308.00000000 21:55:17
    0.00000340948 29329985.00000000 21:55:15
    0.00000340925 29331964.00000000 21:55:14
    0.00000340956 10040698.00000000 21:55:12
    0.00000340951 29329727.00000000 21:55:11
    0.00000340933 18937854.00000000 21:55:10
    0.00000340970 28432181.00000000 21:55:09
    0.00000341045 22596101.00000000 21:55:07
    0.00000340994 29326029.00000000 21:55:05
    0.00000340945 29330243.00000000 21:55:04
    0.00000341005 29325083.00000000 21:55:03
    0.00000341034 29322589.00000000 21:55:02
    0.00000340999 24528894.00000000 21:55:02
    0.00000340919 29332480.00000000 21:55:01
    0.00000341011 29324567.00000000 21:55:00
    0.00000340951 29329727.00000000 21:55:00
    0.00000341080 24935584.00000000 21:54:59
    0.00000341011 17191958.00000000 21:54:59
    0.00000340988 29326545.00000000 21:54:58
    0.00000341073 29319236.00000000 21:54:58
    0.00000341033 14943340.00000000 21:54:58
    0.00000341091 29317689.00000000 21:54:58
    0.00000341056 29320698.00000000 21:54:57
    0.00000340979 29327319.00000000 21:54:57
    0.00000341085 27086303.00000000 21:54:56
    0.00000340957 21860562.00000000 21:54:56
    0.00000341085 29318205.00000000 21:54:56
    0.00000341063 29320096.00000000 21:54:55
    0.00000340984 29326889.00000000 21:54:55
    0.00000340991 29326287.00000000 21:54:54
    0.00000340942 15977622.00000000 21:54:54
    0.00000340910 29333255.00000000 21:54:54
    0.00000341003 29325255.00000000 21:54:53
    0.00000341008 29324825.00000000 21:54:52
    0.00000341091 6564184.00000000 21:54:52
    0.00000340922 22901115.00000000 21:54:51
    0.00000341060 25683987.00000000 21:54:51
    0.00000340922 29332222.00000000 21:54:50
    0.00000341077 7800440.00000000 21:54:50
    0.00000340994 4819231.00000000 21:54:49
    0.00000341034 12290707.00000000 21:54:49
    0.00000341036 26721804.00000000 21:54:48
    0.00000341031 29322847.00000000 21:54:48
    0.00000341068 28712051.00000000 21:54:48
    0.00000341091 29317689.00000000 21:54:47
    0.00000340994 19144398.00000000 21:54:47
    0.00000340982 26380278.00000000 21:54:46
    0.00000340965 17851331.00000000 21:54:46
    0.00000340899 27904208.00000000 21:54:45
    0.00000340982 6562676.00000000 21:54:45
    0.00000340904 29333771.00000000 21:54:44
    0.00000340982 23549465.00000000 21:54:43
    0.00000340910 18384637.00000000 21:54:43
    0.00000341066 29319838.00000000 21:54:43
    0.00000341037 7229940.00000000 21:54:42
    0.00000340956 29329297.00000000 21:54:41
    0.00000340950 26066297.00000000 21:54:41
    0.00000341033 9698012.00000000 21:54:40
    0.00000340970 25286978.00000000 21:54:40
    0.00000341066 22379734.00000000 21:54:39
    0.00000341077 29318892.00000000 21:54:38
    0.00000341019 5565786.00000000 21:54:38
    0.00000341025 29323363.00000000 21:54:38
    0.00000340936 29331018.00000000 21:54:37
    0.00000340994 29326029.00000000 21:54:37
    0.00000341076 28973662.00000000 21:54:37
    0.00000340913 19967412.00000000 21:54:36
    0.00000340988 29326545.00000000 21:54:36
    0.00000340985 21955518.00000000 21:54:35
    0.00000340994 12727047.00000000 21:54:35
    0.00000340994 7084259.00000000 21:54:34
    0.00000341068 20906642.00000000 21:54:34
    0.00000340948 29329985.00000000 21:54:33
    0.00000340976 15374833.00000000 21:54:33
    0.00000340971 29328007.00000000 21:54:32
    注销
    AAA
    帮助
    🙂 🤣 😎 🤗 😛 😉 😜 🤑 🤔 😑 😴 😕 🙃 😲 😇 🙁 😢 😬 😟 😠 🕺 🏃 💪 ✌ 👌 👍 👎 👏 👋 🤝 🍺 🍻 🐋 🐟 🦈 🗽 🚄 ✈ 🛑 🚀 🏦 🌚 ⭐ 🌞 ⚡ 🏆 💰 💲 🔨 ❓ ❗ 💯 🔶 🏁
    ☺
    登录 或 注册 并聊天
    24 小时
    变动
    -1.74%
    成交量
    1,205,988,048,060
    最高
    0.00000349988
    最低
    0.00000335900
    7 天
    变动
    -10.75%
    成交量
    13,938,124,571,419
    最高
    0.00000444573
    最低
    0.00000335900
    30 天
    变动
    +17.56%
    成交量
    54,893,832,757,804
    最高
    0.00000456134
    最低
    0.00000252970
    Pepe price rallies 25% as whale demand and futures interest surge
    Key takeaways Pepe has gained 25% this week, including a combined 22% advance over the previous two days. Seven whale transactions worth more than $1 million each occurred Thursday, the highest...
    coinjournal.net
    Aug 21, 2026 08:41
    PEPE Supply on Exchanges Just Took a Massive Hit – What’s Next?
    A drop in PEPE exchange balances has added to bullish expectations despite muted trader interest.
    cryptopotato.com
    Aug 6, 2026 20:02
    PEPE Exchange Outflows Hit Nearly 2-Year High as Whales Accumulate
    Pepe (PEPE) recorded its largest single-day exchange outflow since November 2024, with 4.54 trillion tokens leaving trading platforms, signaling that holders are moving supply away from immediate...
    beincrypto.com
    Aug 6, 2026 04:57
    Meme Coin Based on White House Shooter Conspiracy Rallies 320%
    $HENRY surged 300% after a 2023 Pepe tweet appeared to name the White House shooter, fueling a viral time-travel meme. The post Meme Coin Based on White House Shooter Conspiracy Rallies 320%...
    beincrypto.com
    Apr 27, 2026 16:11
    PEPE surges 4% as market sentiment improves, eyes Key resistance breakout
    Key takeaways Pepe extends gains on Wednesday, stretching its rally from the 50-day EMA. Derivatives data show heightened retail activity as risk-on sentiment returns to the market. Pepe (PEPE) is...
    coinjournal.net
    Apr 22, 2026 11:44
    Why The PEPE Price Could Stage A 55X Rally To Reach New $0.0001 ATH
    The PEPE price has now started to edge back into bullish conversations after the recent inflows into the crypto market. The last time PEPE’s weekly chart printed the kind of structure now...
    newsbtc.com
    Apr 21, 2026 15:30
    Pepe (PEPE) surges 9%, drawing interest from whales
    Key takeaways PEPE is up 9% in the last 24 hours, making it one of the best performers among the top 50 cryptocurrencies by market cap. The rally comes amid renewed interest from whales and retail...
    coinjournal.net
    Apr 16, 2026 07:40
    Murad Says SPX6900 (SPX) Is Primed for a Rally — Is He Right This Time?
    Crypto influencer Murad Mahmudov claims SPX6900 (SPX) is stabilizing at the same market cap level where Dogecoin (DOGE) and Pepe (PEPE) consolidated before their explosive rallies. The...
    beincrypto.com
    Apr 5, 2026 21:36
    The Shiba Inu Of This Cycle: Analyst Shares Why It Is Better To Buy PEPE Now
    In the bull market cycle of 2021-2022, the Shiba Inu meme coin made waves in a way that changed the face of meme coins forever. This came after Dogecoin’s initial 36,000% rally, and Shiba Inu...
    newsbtc.com
    Apr 4, 2026 07:30
    PEPE Explodes by 18% Amid Altcoin Rally, BTC Tapped $74K: Market Watch
    The frog-themed meme coin is today's biggest gainer, followed by TAO, DOT, and BONK.
    cryptopotato.com
    Mar 16, 2026 10:56
    Should PEPE traders brace for volatility as short squeeze potential builds?
    The memecoin market has seen its collective market capitalization drop by 48% over the past year, and 6.9% over the past month, according to CoinMarketCap. According to Glassnode, the memecoin...
    ambcrypto.com
    Mar 7, 2026 18:00
    只需在聊天中输入命令即可。将 nick1 替换为实际的昵称。
    • /ignore nick1 忽略聊天用户
    • /unignore nick1 取消忽略聊天用户
    • /ignorelist 显示已忽略的聊天用户